When you browse on this site, cookies collect data to enhance your experience and personalize the content and advertising you see.
Visit our Privacy Policy to learn more. By continuing to use the site, you agree to this use of cookies and data.

Hourly Weather Irbid

Today, 11 August, Tuesday

Time Temperature Precipitation Wind Pressure Humidity
00:00 +20°C° 0 mm 2 mps 708 mmHg 90%
01:00 +20°C° 0 mm 2 mps 707 mmHg 91%
02:00 +20°C° 0 mm 2 mps 707 mmHg 92%
03:00 +20°C° 0 mm 2 mps 707 mmHg 92%
04:00 +20°C° 0 mm 2 mps 708 mmHg 92%
05:00 +19°C° 0 mm 2 mps 708 mmHg 92%
06:00 +21°C° 0 mm 3 mps 708 mmHg 83%
07:00 +23°C° 0 mm 4 mps 708 mmHg 74%
08:00 +26°C° 0 mm 5 mps 708 mmHg 64%
09:00 +27°C° 0 mm 6 mps 709 mmHg 58%
10:00 +29°C° 0 mm 6 mps 709 mmHg 52%
11:00 +30°C° 0 mm 7 mps 709 mmHg 46%
12:00 +32°C° 0 mm 7 mps 709 mmHg 43%
13:00 +33°C° 0 mm 8 mps 709 mmHg 40%
14:00 +33°C° 0 mm 8 mps 708 mmHg 37%
15:00 +32°C° 0 mm 8 mps 708 mmHg 42%
16:00 +31°C° 0 mm 8 mps 708 mmHg 47%
17:00 +29°C° 0 mm 8 mps 708 mmHg 52%
18:00 +27°C° 0 mm 6 mps 708 mmHg 62%
19:00 +25°C° 0 mm 5 mps 708 mmHg 71%
20:00 +22°C° 0 mm 3 mps 708 mmHg 81%
21:00 +21°C° 0 mm 3 mps 708 mmHg 84%
22:00 +21°C° 0 mm 2 mps 707 mmHg 86%
23:00 +20°C° 0 mm 2 mps 707 mmHg 89%

Tomorrow, 12 August, Wednesday

Time Temperature Precipitation Wind Pressure Humidity
00:00 +20°C° 0 mm 2 mps 707 mmHg 89%
01:00 +21°C° 0 mm 2 mps 707 mmHg 88%
02:00 +21°C° 0 mm 2 mps 706 mmHg 88%
03:00 +21°C° 0 mm 2 mps 707 mmHg 87%
04:00 +21°C° 0 mm 3 mps 707 mmHg 86%
05:00 +22°C° 0 mm 3 mps 707 mmHg 84%
06:00 +24°C° 0 mm 3 mps 707 mmHg 79%
07:00 +25°C° 0 mm 3 mps 707 mmHg 73%
08:00 +26°C° 0 mm 4 mps 708 mmHg 68%
09:00 +27°C° 0 mm 4 mps 708 mmHg 61%
10:00 +29°C° 0 mm 4 mps 708 mmHg 54%
11:00 +32°C° 0 mm 4 mps 708 mmHg 47%
12:00 +33°C° 0 mm 5 mps 708 mmHg 43%
13:00 +34°C° 0 mm 6 mps 708 mmHg 39%
14:00 +35°C° 0 mm 7 mps 707 mmHg 35%
15:00 +34°C° 0 mm 7 mps 707 mmHg 41%
16:00 +33°C° 0 mm 7 mps 707 mmHg 48%
17:00 +31°C° 0 mm 8 mps 707 mmHg 54%
18:00 +28°C° 0 mm 6 mps 707 mmHg 64%
19:00 +26°C° 0 mm 5 mps 707 mmHg 74%
20:00 +24°C° 0 mm 3 mps 707 mmHg 84%
21:00 +24°C° 0 mm 3 mps 707 mmHg 87%
22:00 +22°C° 0 mm 3 mps 707 mmHg 90%
23:00 +23°C° 0 mm 2 mps 707 mmHg 93%

Day after tomorrow, 13 August, Thursday

Time Temperature Precipitation Wind Pressure Humidity
00:00 +23°C° 0 mm 2 mps 706 mmHg 92%
01:00 +23°C° 0 mm 2 mps 706 mmHg 92%
02:00 +22°C° 0 mm 3 mps 706 mmHg 92%
03:00 +23°C° 0 mm 2 mps 706 mmHg 91%
04:00 +23°C° 0 mm 2 mps 706 mmHg 91%
05:00 +23°C° 0 mm 2 mps 706 mmHg 91%
06:00 +24°C° 0 mm 2 mps 706 mmHg 84%
07:00 +25°C° 0 mm 3 mps 707 mmHg 77%
08:00 +27°C° 0 mm 3 mps 707 mmHg 70%
09:00 +29°C° 0 mm 3 mps 707 mmHg 61%
10:00 +32°C° 0 mm 4 mps 707 mmHg 52%
11:00 +34°C° 0 mm 5 mps 707 mmHg 42%
12:00 +35°C° 0 mm 6 mps 707 mmHg 37%
13:00 +36°C° 0 mm 7 mps 707 mmHg 33%
14:00 +39°C° 0 mm 8 mps 706 mmHg 28%
15:00 +37°C° 0 mm 8 mps 706 mmHg 33%
16:00 +34°C° 0 mm 8 mps 706 mmHg 39%
17:00 +32°C° 0 mm 8 mps 705 mmHg 45%
18:00 +29°C° 0 mm 6 mps 706 mmHg 56%
19:00 +27°C° 0 mm 5 mps 706 mmHg 67%
20:00 +25°C° 0 mm 3 mps 706 mmHg 78%
21:00 +24°C° 0 mm 3 mps 706 mmHg 82%
22:00 +24°C° 0 mm 3 mps 705 mmHg 85%
23:00 +23°C° 0 mm 2 mps 705 mmHg 89%

14 August, Friday

Time Temperature Precipitation Wind Pressure Humidity
00:00 +23°C° 0 mm 2 mps 705 mmHg 90%
01:00 +23°C° 0 mm 2 mps 705 mmHg 90%
02:00 +21°C° 0 mm 2 mps 705 mmHg 91%
03:00 +22°C° 0 mm 1 mps 704 mmHg 91%
04:00 +22°C° 0 mm 1 mps 704 mmHg 90%
05:00 +21°C° 0 mm 1 mps 704 mmHg 90%
06:00 +23°C° 0 mm 2 mps 705 mmHg 80%
07:00 +26°C° 0 mm 2 mps 705 mmHg 69%
08:00 +28°C° 0 mm 3 mps 706 mmHg 59%
09:00 +30°C° 0 mm 4 mps 706 mmHg 51%
10:00 +33°C° 0 mm 5 mps 706 mmHg 42%
11:00 +35°C° 0 mm 5 mps 706 mmHg 33%
12:00 +36°C° 0 mm 7 mps 706 mmHg 30%
13:00 +38°C° 0 mm 8 mps 706 mmHg 27%
14:00 +39°C° 0 mm 9 mps 706 mmHg 24%
15:00 +37°C° 0 mm 9 mps 705 mmHg 29%
16:00 +35°C° 0 mm 8 mps 705 mmHg 34%
17:00 +33°C° 0 mm 8 mps 705 mmHg 39%
18:00 +30°C° 0 mm 6 mps 705 mmHg 49%
19:00 +28°C° 0 mm 5 mps 705 mmHg 60%
20:00 +25°C° 0 mm 3 mps 705 mmHg 71%
21:00 +25°C° 0 mm 3 mps 705 mmHg 73%
22:00 +24°C° 0 mm 2 mps 705 mmHg 76%
23:00 +23°C° 0 mm 2 mps 704 mmHg 79%

15 August, Saturday

Time Temperature Precipitation Wind Pressure Humidity
00:00 +23°C° 0 mm 2 mps 704 mmHg 82%
01:00 +23°C° 0 mm 2 mps 704 mmHg 85%
02:00 +21°C° 0 mm 2 mps 704 mmHg 88%
03:00 +22°C° 0 mm 1 mps 704 mmHg 87%
04:00 +21°C° 0 mm 1 mps 704 mmHg 87%
05:00 +21°C° 0 mm 1 mps 704 mmHg 87%
06:00 +24°C° 0 mm 2 mps 704 mmHg 75%
07:00 +26°C° 0 mm 2 mps 705 mmHg 64%
08:00 +28°C° 0 mm 3 mps 705 mmHg 52%
09:00 +30°C° 0 mm 3 mps 705 mmHg 45%
10:00 +33°C° 0 mm 4 mps 705 mmHg 37%
11:00 +35°C° 0 mm 5 mps 705 mmHg 30%
12:00 +36°C° 0 mm 6 mps 705 mmHg 27%
13:00 +38°C° 0 mm 7 mps 705 mmHg 24%
14:00 +39°C° 0 mm 8 mps 705 mmHg 21%
15:00 +38°C° 0 mm 8 mps 705 mmHg 24%
16:00 +37°C° 0 mm 8 mps 705 mmHg 27%
17:00 +34°C° 0 mm 8 mps 704 mmHg 30%
18:00 +32°C° 0 mm 6 mps 704 mmHg 41%
19:00 +28°C° 0 mm 5 mps 704 mmHg 52%
20:00 +26°C° 0 mm 3 mps 704 mmHg 63%
21:00 +25°C° 0 mm 3 mps 704 mmHg 67%
22:00 +24°C° 0 mm 2 mps 704 mmHg 70%
23:00 +23°C° 0 mm 2 mps 704 mmHg 73%

16 August, Sunday

Time Temperature Precipitation Wind Pressure Humidity
00:00 +23°C° 0 mm 2 mps 703 mmHg 77%
01:00 +22°C° 0 mm 1 mps 703 mmHg 80%
02:00 +21°C° 0 mm 1 mps 703 mmHg 84%
03:00 +21°C° 0 mm 1 mps 703 mmHg 86%
04:00 +21°C° 0 mm 1 mps 703 mmHg 87%
05:00 +21°C° 0 mm 1 mps 703 mmHg 89%
06:00 +23°C° 0 mm 2 mps 704 mmHg 77%
07:00 +26°C° 0 mm 2 mps 704 mmHg 65%
08:00 +28°C° 0 mm 3 mps 705 mmHg 52%
09:00 +30°C° 0 mm 3 mps 705 mmHg 44%
10:00 +33°C° 0 mm 4 mps 705 mmHg 35%
11:00 +36°C° 0 mm 5 mps 706 mmHg 26%
12:00 +36°C° 0 mm 6 mps 706 mmHg 23%
13:00 +38°C° 0 mm 7 mps 706 mmHg 20%
14:00 +39°C° 0 mm 8 mps 705 mmHg 18%
15:00 +38°C° 0 mm 8 mps 705 mmHg 21%
16:00 +35°C° 0 mm 8 mps 705 mmHg 24%
17:00 +34°C° 0 mm 8 mps 705 mmHg 27%
18:00 +30°C° 0 mm 6 mps 705 mmHg 39%
19:00 +27°C° 0 mm 4 mps 705 mmHg 51%
20:00 +25°C° 0 mm 2 mps 705 mmHg 62%
21:00 +24°C° 0 mm 2 mps 705 mmHg 65%
22:00 +23°C° 0 mm 2 mps 705 mmHg 68%
23:00 +22°C° 0 mm 1 mps 705 mmHg 72%
Show more